Content
SEND FEEDBACK

Daily
Averages
Monthly
Summary
United States of America

FOWLER, KANSAS


Home > North America > United States > Kansas
Elevation: 2480 feet     Latitude: 37 27N     Longitude: 100 10W

WEATHER
 
SELECT A DAY
Number of Records: 186,455;   Date Range: 1/1/95 - 9/13/14
 
SHARE

PRINT THIS DATA

[ ← Previous Day ]
WEATHER ALMANAC - FEBRUARY 13, 2013
[ Next Day → ]
[ °C ]   °F
Weather ElementAverageHighLow
Temperature41 °F57 °F (4:53 pm)28.9 °F (6:53 am)
Dewpoint28.5 °F35.1 °F (6:53 pm)24.8 °F (5:53 am)
Humidity64.6 %92 % (2:53 am)30 % (3:53 pm)
Barometer30.06 in30.13 in (1:53 am)29.97 in (4:53 pm)
Wind Speed5.4 mph8.1 mph (1:53 am)
Weather ElementAverage
Visibility10 mi
Wind DirectionSSW (207.8 °)

Weather ElementTotal
Precipitation---
Heating Degree Days22.1 (Base 65)
Averaged from 23 records on February 13, 2013
WEATHER CONDITIONS BREAKOUT
WIND DIRECTION BREAKOUT
WEATHER BY HOUR - FEBRUARY 13, 2013
[ °C ]   °F
Local TimeTemperatureDewpointHumidityBarometerVisibilityWind DirectionWind SpeedGust SpeedPrecipitationEventsConditions
1:53 AM30.9 °F28.0 °F89 %30.13 in10.0 miWNW (300°)8.1 mphClear
2:53 AM30.0 °F28.0 °F92 %30.12 in9.0 miNNW (330°)4.6 mphClear
3:53 AM30.0 °F27.0 °F88 %30.10 in10.0 miNW (320°)5.8 mphClear
4:53 AM30.0 °F26.1 °F85 %30.09 in10.0 miNNW (330°)5.8 mphClear
5:53 AM30.2 °F24.8 °F80 %30.06 in10.0 miWNW (290°)3.5 mphClear
6:53 AM28.9 °F25.0 °F85 %30.11 in10.0 miWNW (290°)6.9 mphClear
7:53 AM30.0 °F25.0 °F82 %30.12 in10.0 miWNW (300°)5.8 mphClear
8:53 AM32.0 °F25.0 °F75 %30.13 in10.0 miNW (310°)5.8 mphClear
9:53 AM35.1 °F27.0 °F72 %30.13 in10.0 miWNW (290°)8.1 mphClear
10:53 AM39.9 °F30.9 °F70 %30.13 in10.0 miWest (280°)5.8 mphClear
11:53 AM46.0 °F33.1 °F61 %30.11 in10.0 miWest (280°)5.8 mphClear
12:53 PM50.0 °F30.9 °F48 %30.07 in10.0 miWNW (300°)5.8 mphClear
1:53 PM53.1 °F30.9 °F43 %30.03 in10.0 miVariable3.5 mphClear
2:53 PM55.0 °F26.1 °F33 %30.01 in10.0 miCalmClear
3:53 PM55.9 °F25.0 °F30 %29.99 in10.0 miSouth (190°)4.6 mphClear
4:53 PM57.0 °F27.0 °F32 %29.97 in10.0 miSouth (190°)8.1 mphClear
5:53 PM54.0 °F32.0 °F43 %29.97 in10.0 miSouth (190°)3.5 mphClear
6:53 PM48.0 °F35.1 °F61 %29.99 in10.0 miESE (120°)3.5 mphClear
7:53 PM46.0 °F33.1 °F61 %30.00 in10.0 miNE (50°)6.9 mphClear
8:53 PM43.0 °F30.9 °F62 %30.02 in10.0 miNE (50°)8.1 mphClear
9:53 PM42.1 °F28.0 °F58 %30.01 in10.0 miEast (80°)5.8 mphClear
10:53 PM37.0 °F28.9 °F73 %30.02 in10.0 miESE (110°)4.6 mphClear
11:53 PM39.9 °F28.0 °F63 %30.02 in10.0 miSouth (180°)4.6 mphClear
Hourly data recorded from KCDS, located miles away from Fowler, Kansas







STORIES FROM OUR PARTNERS